When you browse on this site, cookies collect data to enhance your experience and personalize the content and advertising you see.
Visit our Privacy Policy to learn more. By continuing to use the site, you agree to this use of cookies and data.
  • In Spain
  • List of Countries
  • For 7 days
  • Water Temperature
  • Satellite Maps
  • Weather Map
  • Weather Widgets
  • user-avatar
    Login

    Hourly Weather Atzitzintla

    Today, 22 May, Wednesday

    Time Temperature Precipitation Wind Pressure Humidity
    00:00 +15°C° 0.4 mm 1 mps 551 mmHg 73%
    01:00 +15°C° 0 mm 1 mps 550 mmHg 75%
    02:00 +14°C° 0 mm 1 mps 550 mmHg 77%
    03:00 +13°C° 0 mm 1 mps 549 mmHg 78%
    04:00 +13°C° 0 mm 1 mps 549 mmHg 79%
    05:00 +13°C° 0 mm 1 mps 549 mmHg 80%
    06:00 +13°C° 0 mm 1 mps 549 mmHg 80%
    07:00 +15°C° 0 mm 1 mps 550 mmHg 72%
    08:00 +18°C° 0 mm 1 mps 552 mmHg 63%
    09:00 +20°C° 0 mm 1 mps 553 mmHg 55%
    10:00 +21°C° 0 mm 1 mps 554 mmHg 48%
    11:00 +21°C° 0 mm 2 mps 554 mmHg 41%
    12:00 +24°C° 0 mm 2 mps 555 mmHg 35%
    13:00 +24°C° 0 mm 2 mps 555 mmHg 34%
    14:00 +24°C° 0 mm 3 mps 554 mmHg 33%
    15:00 +24°C° 0 mm 3 mps 554 mmHg 32%
    16:00 +22°C° 0.2 mm 3 mps 553 mmHg 39%
    17:00 +20°C° 0.2 mm 3 mps 552 mmHg 46%
    18:00 +19°C° 0.2 mm 3 mps 551 mmHg 53%
    19:00 +18°C° 0.2 mm 3 mps 551 mmHg 63%
    20:00 +16°C° 0.2 mm 2 mps 551 mmHg 73%
    21:00 +15°C° 0.2 mm 2 mps 551 mmHg 83%
    22:00 +15°C° 0 mm 2 mps 551 mmHg 85%
    23:00 +14°C° 0 mm 2 mps 552 mmHg 86%

    Tomorrow, 23 May, Thursday

    Time Temperature Precipitation Wind Pressure Humidity
    00:00 +14°C° 0 mm 2 mps 552 mmHg 88%
    01:00 +13°C° 0 mm 1 mps 551 mmHg 87%
    02:00 +13°C° 0 mm 1 mps 551 mmHg 86%
    03:00 +12°C° 0 mm 1 mps 550 mmHg 84%
    04:00 +12°C° 0 mm 1 mps 550 mmHg 83%
    05:00 +12°C° 0 mm 1 mps 550 mmHg 81%
    06:00 +11°C° 0 mm 1 mps 550 mmHg 80%
    07:00 +14°C° 0 mm 1 mps 551 mmHg 71%
    08:00 +16°C° 0 mm 1 mps 553 mmHg 63%
    09:00 +19°C° 0 mm 1 mps 554 mmHg 54%
    10:00 +20°C° 0 mm 1 mps 554 mmHg 51%
    11:00 +20°C° 0 mm 2 mps 555 mmHg 47%
    12:00 +21°C° 0 mm 2 mps 555 mmHg 44%
    13:00 +21°C° 0.1 mm 3 mps 555 mmHg 47%
    14:00 +20°C° 0.1 mm 3 mps 554 mmHg 50%
    15:00 +20°C° 0.1 mm 3 mps 553 mmHg 53%
    16:00 +19°C° 0.8 mm 3 mps 552 mmHg 60%
    17:00 +18°C° 0.8 mm 3 mps 552 mmHg 68%
    18:00 +16°C° 0.8 mm 3 mps 551 mmHg 76%
    19:00 +16°C° 0.5 mm 3 mps 551 mmHg 80%
    20:00 +14°C° 0.5 mm 3 mps 552 mmHg 84%
    21:00 +14°C° 0.5 mm 2 mps 552 mmHg 88%
    22:00 +14°C° 0.1 mm 2 mps 552 mmHg 88%
    23:00 +13°C° 0.1 mm 2 mps 552 mmHg 87%

    Day after tomorrow, 24 May, Friday

    Time Temperature Precipitation Wind Pressure Humidity
    00:00 +13°C° 0.1 mm 2 mps 552 mmHg 86%
    01:00 +12°C° 0 mm 1 mps 551 mmHg 84%
    02:00 +12°C° 0 mm 1 mps 551 mmHg 81%
    03:00 +12°C° 0 mm 1 mps 550 mmHg 79%
    04:00 +12°C° 0 mm 1 mps 550 mmHg 78%
    05:00 +11°C° 0 mm 1 mps 550 mmHg 78%
    06:00 +11°C° 0 mm 1 mps 550 mmHg 78%
    07:00 +13°C° 0 mm 1 mps 551 mmHg 71%
    08:00 +15°C° 0 mm 1 mps 553 mmHg 64%
    09:00 +17°C° 0 mm 2 mps 554 mmHg 57%
    10:00 +18°C° 0 mm 2 mps 555 mmHg 53%
    11:00 +19°C° 0 mm 3 mps 555 mmHg 49%
    12:00 +20°C° 0 mm 3 mps 555 mmHg 45%
    13:00 +20°C° 0 mm 3 mps 555 mmHg 47%
    14:00 +20°C° 0 mm 3 mps 554 mmHg 50%
    15:00 +20°C° 0 mm 3 mps 554 mmHg 53%
    16:00 +18°C° 0.3 mm 3 mps 553 mmHg 61%
    17:00 +17°C° 0.3 mm 3 mps 552 mmHg 69%
    18:00 +16°C° 0.3 mm 3 mps 552 mmHg 76%
    19:00 +14°C° 0.5 mm 3 mps 552 mmHg 80%
    20:00 +13°C° 0.5 mm 3 mps 552 mmHg 84%
    21:00 +14°C° 0.5 mm 2 mps 552 mmHg 88%
    22:00 +13°C° 0 mm 2 mps 552 mmHg 88%
    23:00 +13°C° 0 mm 2 mps 552 mmHg 87%

    25 May, Saturday

    Time Temperature Precipitation Wind Pressure Humidity
    00:00 +13°C° 0 mm 2 mps 552 mmHg 87%
    01:00 +12°C° 0 mm 2 mps 552 mmHg 86%
    02:00 +11°C° 0 mm 1 mps 551 mmHg 84%
    03:00 +11°C° 0 mm 1 mps 550 mmHg 83%
    04:00 +11°C° 0 mm 1 mps 550 mmHg 80%
    05:00 +10°C° 0 mm 1 mps 550 mmHg 77%
    06:00 +10°C° 0 mm 1 mps 550 mmHg 74%
    07:00 +12°C° 0 mm 1 mps 552 mmHg 65%
    08:00 +14°C° 0 mm 2 mps 553 mmHg 56%
    09:00 +16°C° 0 mm 2 mps 555 mmHg 46%
    10:00 +17°C° 0 mm 2 mps 555 mmHg 44%
    11:00 +19°C° 0 mm 3 mps 555 mmHg 41%
    12:00 +20°C° 0 mm 3 mps 556 mmHg 39%
    13:00 +20°C° 0 mm 3 mps 555 mmHg 40%
    14:00 +20°C° 0 mm 4 mps 555 mmHg 41%
    15:00 +20°C° 0 mm 4 mps 554 mmHg 42%
    16:00 +19°C° 0 mm 4 mps 554 mmHg 52%
    17:00 +17°C° 0 mm 4 mps 553 mmHg 62%
    18:00 +15°C° 0 mm 4 mps 553 mmHg 71%
    19:00 +14°C° 0 mm 4 mps 553 mmHg 76%
    20:00 +13°C° 0 mm 3 mps 553 mmHg 81%
    21:00 +12°C° 0 mm 3 mps 553 mmHg 86%
    22:00 +12°C° 0 mm 2 mps 553 mmHg 85%
    23:00 +12°C° 0 mm 2 mps 552 mmHg 85%

    26 May, Sunday

    Time Temperature Precipitation Wind Pressure Humidity
    00:00 +10°C° 0 mm 2 mps 552 mmHg 84%
    01:00 +10°C° 0 mm 2 mps 552 mmHg 83%
    02:00 +10°C° 0 mm 2 mps 551 mmHg 82%
    03:00 +9°C° 0 mm 2 mps 551 mmHg 81%
    04:00 +9°C° 0 mm 2 mps 551 mmHg 80%
    05:00 +10°C° 0 mm 1 mps 551 mmHg 79%
    06:00 +9°C° 0 mm 1 mps 551 mmHg 77%
    07:00 +12°C° 0 mm 2 mps 552 mmHg 65%
    08:00 +14°C° 0 mm 2 mps 554 mmHg 52%
    09:00 +16°C° 0 mm 2 mps 555 mmHg 39%
    10:00 +18°C° 0 mm 3 mps 556 mmHg 37%
    11:00 +19°C° 0 mm 3 mps 556 mmHg 34%
    12:00 +20°C° 0 mm 3 mps 557 mmHg 31%
    13:00 +20°C° 0 mm 4 mps 556 mmHg 34%
    14:00 +20°C° 0 mm 4 mps 556 mmHg 36%
    15:00 +20°C° 0 mm 4 mps 555 mmHg 39%
    16:00 +19°C° 0 mm 4 mps 555 mmHg 48%
    17:00 +17°C° 0 mm 4 mps 554 mmHg 57%
    18:00 +15°C° 0 mm 4 mps 553 mmHg 67%
    19:00 +14°C° 0 mm 4 mps 553 mmHg 73%
    20:00 +13°C° 0 mm 3 mps 553 mmHg 79%
    21:00 +11°C° 0 mm 3 mps 553 mmHg 86%
    22:00 +12°C° 0 mm 2 mps 553 mmHg 85%
    23:00 +10°C° 0 mm 2 mps 552 mmHg 84%

    27 May, Monday

    Time Temperature Precipitation Wind Pressure Humidity
    00:00 +10°C° 0 mm 2 mps 552 mmHg 82%
    01:00 +9°C° 0 mm 2 mps 552 mmHg 79%
    02:00 +9°C° 0 mm 2 mps 551 mmHg 75%
    03:00 +10°C° 0 mm 1 mps 551 mmHg 72%
    04:00 +10°C° 0 mm 1 mps 551 mmHg 72%
    05:00 +9°C° 0 mm 1 mps 551 mmHg 71%
    06:00 +9°C° 0 mm 1 mps 551 mmHg 71%
    07:00 +12°C° 0 mm 1 mps 552 mmHg 63%
    08:00 +14°C° 0 mm 2 mps 554 mmHg 55%
    09:00 +17°C° 0 mm 2 mps 555 mmHg 46%
    10:00 +18°C° 0 mm 2 mps 555 mmHg 43%
    11:00 +19°C° 0 mm 2 mps 556 mmHg 39%
    12:00 +21°C° 0 mm 3 mps 556 mmHg 36%
    13:00 +21°C° 0 mm 3 mps 555 mmHg 36%
    14:00 +21°C° 0 mm 3 mps 555 mmHg 36%
    15:00 +21°C° 0 mm 3 mps 554 mmHg 37%
    16:00 +20°C° 0 mm 4 mps 553 mmHg 46%
    17:00 +18°C° 0 mm 4 mps 553 mmHg 55%
    18:00 +17°C° 0 mm 4 mps 552 mmHg 65%
    19:00 +16°C° 0 mm 3 mps 552 mmHg 72%
    20:00 +14°C° 0 mm 2 mps 551 mmHg 79%
    21:00 +13°C° 0 mm 1 mps 551 mmHg 86%
    22:00 +13°C° 0 mm 1 mps 551 mmHg 86%
    23:00 +12°C° 0 mm 1 mps 551 mmHg 85%
    Show more